Regional Weather Roundup
Issued by NWS Wilmington, NC

Home | Current Version | Previous Version | Text Only | Print | Product List | Glossary On
Versions: 1 2 3 4 5 6 7 8 9 10 11 12 13 14 15 16 17 18 19 20 21 22 23 24 25 26 27 28 29 30 31 32 33 34 35 36 37 38 39 40 41 42 43 44 45 46 47 48 49 50
000
ASUS42 KILM 241110
RWRILM
RWRILM
REGIONAL HOURLY WEATHER ROUNDUP
NATIONAL WEATHER SERVICE WILMINGTON NC
700 AM EDT THU JUL 24 2014

NOTE: "FAIR" INDICATES FEW OR NO CLOUDS BELOW 12,000 FEET WITH NO
SIGNIFICANT WEATHER AND/OR OBSTRUCTIONS TO VISIBILITY.

...............WFO WILMINGTON COUNTY WARNING AREA...............

......COASTAL NC AND SC COUNTIES......

CITY           SKY/WX    TMP DP  RH WIND       PRES   REMARKS
WILMINGTON     PTCLDY    78  76  93 SW7       29.93S
SOUTHPORT      PTCLDY    80  76  87 W12       29.94S
N MYRTLE BEACH CLEAR     79  76  90 W8        29.93S
MYRTLE BEACH   CLEAR     79  75  89 W7        29.94S

......INLAND NC AND SC COUNTIES.......

CITY           SKY/WX    TMP DP  RH WIND       PRES   REMARKS
LUMBERTON      CLEAR     76  74  93 SW7       29.92R
ELIZABETHTOWN  CLEAR     76  76  99 SW3       29.92S
WHITEVILLE     CLEAR     76  74  93 SW5       29.93S
FLORENCE       PTCLDY    77  74  90 SW6       29.93S
DARLINGTON     CLEAR     75  72  88 SW6       29.93S

....................REST OF NORTH CAROLINA......................

.........EASTERN NC.........

CITY           SKY/WX    TMP DP  RH WIND       PRES   REMARKS
CAPE HATTERAS  MOCLDY    79  76  90 W12       29.90S
JACKSONVILLE   CLEAR     75  72  88 SW6       29.93R
MOREHEAD CITY  PTCLDY    81  76  84 W10       29.92R
KENANSVILLE    CLEAR     75  73  93 CALM      29.92S
NEW BERN       CLEAR     77  73  87 SW7       29.92S
ELIZABETH CITY PTCLDY    77  74  90 SW10      29.86S

.........CENTRAL NC.........

CITY           SKY/WX    TMP DP  RH WIND       PRES   REMARKS
RALEIGH DURHAM MOCLDY    75  72  90 W3        29.91R
ROCKY MOUNT    PTCLDY    76  74  93 SW5       29.88S
ROANOKE RAPIDS NOT AVBL
FAYETTEVILLE   PTCLDY    76  74  93 SW7       29.91R
HOFFMAN        MOCLDY    75  74  97 SW6       29.93R

.........WESTERN NC.........

CITY           SKY/WX    TMP DP  RH WIND       PRES   REMARKS
CHARLOTTE      MOCLDY    73  70  90 CALM      29.93R
GREENSBORO     MOCLDY    73  70  90 CALM      29.93R
HICKORY        NOT AVBL
BOONE          NOT AVBL
ASHEVILLE      NOT AVBL

.....................REST OF SOUTH CAROLINA.....................

.........EASTERN SC.........

CITY           SKY/WX    TMP DP  RH WIND       PRES   REMARKS
CHARLESTON     PTCLDY    79  76  90 SW6       29.96R
BEAUFORT MCAS  CLEAR     78  74  87 W5        29.97R
HILTON HEAD    NOT AVBL

.........CENTRAL SC.........

CITY           SKY/WX    TMP DP  RH WIND       PRES   REMARKS
COLUMBIA       CLEAR     78  73  84 SW5       29.94R
ORANGEBURG     CLEAR     75  73  93 SW5       29.96R FOG
SUMTER SHAW    CLEAR     76  75  98 SW9       29.92R

.........WESTERN SC.........

CITY           SKY/WX    TMP DP  RH WIND       PRES   REMARKS
GREENVILLE     NOT AVBL
ROCK HILL      CLEAR     72  71  97 CALM      29.94R FOG
ANDERSON       CLEAR     71  70  96 SW3       29.95S
CLEMSON        NOT AVBL
GREENWOOD      CLEAR     74  71  91 SW6       29.97R


...................COASTAL AND OFFSHORE REPORTS..................

................LOCAL PIERS AND NC RESERVE................


STATION/POSITION TIME  SKY/WX   TEMP    WIND        PRES    VSBY
                                AIR SEA DIR/SP/G
                 (UTC)          (F)     (DEG/KT/KT) (MB)    (MI)
JOHNY MRCER PIER 1000            79 83  250/  9/ 12 1012.9R
NC RESRV MASNBRO 1000            78     240/  3     1013.0S
OCEAN CREST PIER 1100            81 83  250/ 17/ 18 1012.7R
SPRINGMAID  PIER 1000            79 83  240/  9/ 12 1013.7R


................COASTAL AND OFFSHORE BUOYS................


STATION/POSITION TIME  SKY/WX   TEMP    WIND        PRES    VSBY
                                AIR SEA DIR/SP/G
                 (UTC)          (F)     (DEG/KT/KT) (MB)    (MI)
DIMNDSHOAL 41025 1100                   VRB 17/ 19  1012.3R
WVE H/P(F/S)=  5/ 5 WND WVE H/P(F/S)=  5/ 5 SWL H/P/D(F/S/D)=  2/140/ 8

CAPE LOOKOUT     1000            80     250/ 11/ 15 1012.9F
ONSLOW BAY 41036 1000            81 80  240/ 14/ 17 1013.5S
5 WRITEBCH 41038 1000            77 81  250/ 12/ 14   N/A
MASONBORO  41110 1100               81                N/A
WVE H/P(F/S)=  4/ 6 WND WVE H/P(F/S)=  3/ 6

WILM HARBR 41108 NOT AVBL
27WRITEBCH 41037 1000            77 81  250/ 14/ 17 1013.4R
FRYING PAN 41013 NOT AVBL
SUNST NRSH 41024 1000            81     260/ 16/ 17 1013.4S
CAPRS NRSH 41029 1000            83     240/ 14/ 16   N/A
EDISTO     41004 1100            82 82  230/ 16/ 17 1013.9R
WVE H/P(F/S)=  4/ 6 WND WVE H/P(F/S)=  3/ 6 SWL H/P/D(F/S/D)=  2/ 7



..........OFFSHORE BUOYS BEYOND 100 NM OFFSHORE...........
.....IN A TRIANGLE---HAT TO BERMUDA TO BAHAMAS TO HAT.....


STATION/POSITION TIME  SKY/WX   TEMP    WIND        PRES    VSBY
                                AIR SEA DIR/SP/G
                 (UTC)          (F)     (DEG/KT/KT) (MB)    (MI)
150E HAT   41001 NOT AVBL
W BERMUDA  41048 0952            83 83  200/ 16/ 19 1018.8
WVE H/P(F/S)=  4/ 5 WND WVE H/P(F/S)=  3/ 5 SWL H/P/D(F/S/D)=  2/120/ 8

ATLANTIC S 41049 1049            82 83  140/ 10/ 12 1022.1R
WVE H/P(F/S)=  3/ 7 WND WVE H/P(F/S)=  2/ 4 SWL H/P/D(F/S/D)=  2/130/ 7

E BAHAMAS  41046 1016            82 84  120/ 14/ 16 1019.5R
WVE H/P(F/S)=  4/ 8 WND WVE H/P(F/S)=  3/ 5 SWL H/P/D(F/S/D)=  3/110/ 8

NE BAHAMAS 41047 1050            83 84  170/ 12/ 14 1019.9R
WVE H/P(F/S)=  3/ 7 WND WVE H/P(F/S)=  2/ 5 SWL H/P/D(F/S/D)=  3/150/ 7

120E CANVRL41010 1100            83 83  210/ 12/ 16 1017.2R
WVE H/P(F/S)=  4/ 7 WND WVE H/P(F/S)=  3/ 6 SWL H/P/D(F/S/D)=  2/140/ 7


END



USA.gov is the U.S. government's official web portal to all federal, state and local government web resources and services.